| time (UTC) | temp F | wind direction | speed MPH | gust MPH | rain 1hr in | rain 24hr in | rain mn in | humidity % | barometer mb |
| 20260507191618 | 62 | 302 | 5.0 | 12.0 | 0.00 | 0.34 | 0.22 | 40 | 1008.1 |
| 20260507191544 | 62 | 34 | 4.0 | 12.0 | 0.00 | 0.34 | 0.22 | 43 | 1007.5 |
| 20260507191339 | 63 | 10 | 4.0 | 12.0 | 0.00 | 0.34 | 0.22 | 40 | 1008.2 |
| 20260507190850 | 64 | 311 | 5.0 | 14.0 | 0.00 | 0.34 | 0.22 | 42 | 1008.3 |
| 20260507190343 | 65 | 13 | 4.0 | 14.0 | 0.00 | 0.34 | 0.22 | 44 | 1008.3 |
| 20260507190108 | 64 | 295 | 6.0 | 14.0 | 0.00 | 0.34 | 0.22 | 46 | 1008.3 |
| 20260507190042 | 64 | 298 | 4.0 | 11.0 | 0.00 | 0.34 | 0.22 | 44 | 1007.8 |
| 20260507185849 | 64 | 320 | 4.0 | 11.0 | 0.00 | 0.34 | 0.22 | 41 | 1008.3 |
| 20260507185340 | 64 | 341 | 3.0 | 10.0 | 0.00 | 0.34 | 0.22 | 42 | 1008.5 |
| 20260507184849 | 64 | 299 | 4.0 | 12.0 | 0.00 | 0.34 | 0.22 | 40 | 1008.6 |
| 20260507184618 | 64 | 286 | 4.0 | 12.0 | 0.00 | 0.34 | 0.22 | 41 | 1008.6 |
| 20260507184540 | 64 | 20 | 4.0 | 12.0 | 0.00 | 0.34 | 0.22 | 42 | 1007.9 |
| 20260507184341 | 64 | 275 | 5.0 | 12.0 | 0.00 | 0.34 | 0.22 | 41 | 1008.6 |
| 20260507183852 | 64 | 5 | 5.0 | 11.0 | 0.00 | 0.34 | 0.22 | 43 | 1008.8 |
| 20260507183404 | 64 | 309 | 4.0 | 15.0 | 0.00 | 0.34 | 0.22 | 45 | 1008.8 |
| 20260507183108 | 64 | 348 | 2.0 | 15.0 | 0.00 | 0.34 | 0.22 | 46 | 1008.8 |
| 20260507183049 | 64 | 297 | 3.0 | 15.0 | 0.00 | 0.34 | 0.22 | 45 | 1008.1 |
| 20260507182849 | 64 | 294 | 4.0 | 15.0 | 0.00 | 0.34 | 0.22 | 46 | 1008.7 |
| 20260507182340 | 63 | 275 | 7.0 | 15.0 | 0.00 | 0.34 | 0.22 | 41 | 1008.9 |
| 20260507181850 | 63 | 337 | 4.0 | 13.0 | 0.00 | 0.34 | 0.22 | 44 | 1009.0 |
| 20260507181623 | 63 | 309 | 5.0 | 13.0 | 0.00 | 0.34 | 0.22 | 42 | 1008.9 |
| 20260507181538 | 63 | 292 | 5.0 | 13.0 | 0.00 | 0.34 | 0.22 | 41 | 1008.3 |
| 20260507181340 | 64 | 278 | 2.0 | 13.0 | 0.00 | 0.34 | 0.22 | 43 | 1009.0 |
| 20260507180851 | 64 | 298 | 5.0 | 11.0 | 0.00 | 0.34 | 0.22 | 42 | 1009.0 |
| 20260507180343 | 64 | 120 | 2.0 | 11.0 | 0.00 | 0.34 | 0.22 | 44 | 1008.8 |
| 20260507180107 | 63 | 252 | 4.0 | 11.0 | 0.00 | 0.34 | 0.22 | 43 | 1008.9 |
| 20260507180051 | 62 | 266 | 4.0 | 11.0 | 0.00 | 0.34 | 0.22 | 45 | 1008.4 |
| 20260507175851 | 63 | 312 | 4.0 | 11.0 | 0.00 | 0.37 | 0.22 | 43 | 1009.0 |
| 20260507175340 | 62 | 355 | 3.0 | 10.0 | 0.00 | 0.37 | 0.22 | 49 | 1009.0 |
| 20260507174835 | 62 | 263 | 2.0 | 9.0 | 0.00 | 0.37 | 0.22 | 45 | 1009.1 |
| 20260507174541 | 62 | 85 | 5.0 | 12.0 | 0.00 | 0.37 | 0.22 | 42 | 1008.6 |
| 20260507174503 | 63 | 26 | 4.0 | 12.0 | 0.00 | 0.37 | 0.22 | 43 | 1009.3 |
| 20260507174403 | 63 | 336 | 4.0 | 12.0 | 0.00 | 0.37 | 0.22 | 45 | 1009.4 |
| 20260507173836 | 62 | 22 | 5.0 | 12.0 | 0.00 | 0.37 | 0.22 | 46 | 1009.4 |
| 20260507173404 | 63 | 314 | 4.0 | 14.0 | 0.00 | 0.37 | 0.22 | 43 | 1009.5 |
| 20260507173137 | 62 | 290 | 4.0 | 14.0 | 0.00 | 0.37 | 0.22 | 49 | 1009.4 |
| 20260507173054 | 62 | 315 | 5.0 | 14.0 | 0.00 | 0.37 | 0.22 | 47 | 1008.7 |
| 20260507172849 | 63 | 292 | 5.0 | 14.0 | 0.00 | 0.37 | 0.22 | 51 | 1009.5 |
| 20260507172344 | 63 | 306 | 2.0 | 14.0 | 0.00 | 0.37 | 0.22 | 47 | 1009.5 |
| 20260507171908 | 62 | 294 | 6.0 | 11.0 | 0.00 | 0.37 | 0.22 | 45 | 1009.6 |
| 20260507171615 | 61 | 332 | 2.0 | 11.0 | 0.00 | 0.37 | 0.22 | 43 | 1009.5 |
| 20260507171538 | 61 | 280 | 3.0 | 11.0 | 0.00 | 0.37 | 0.22 | 43 | 1008.9 |
| 20260507171358 | 62 | 277 | 6.0 | 11.0 | 0.00 | 0.37 | 0.22 | 43 | 1009.7 |
| 20260507170908 | 62 | 325 | 4.0 | 14.0 | 0.00 | 0.37 | 0.22 | 41 | 1009.8 |
| 20260507170339 | 62 | 335 | 3.0 | 14.0 | 0.00 | 0.37 | 0.22 | 50 | 1009.9 |
| 20260507170117 | 62 | 24 | 8.0 | 14.0 | 0.00 | 0.37 | 0.22 | 42 | 1009.9 |
| 20260507170048 | 62 | 306 | 7.0 | 14.0 | 0.00 | 0.37 | 0.22 | 41 | 1009.3 |
| 20260507165847 | 63 | 301 | 6.0 | 12.0 | 0.00 | 0.38 | 0.22 | 43 | 1009.9 |
| 20260507165341 | 62 | 277 | 4.0 | 9.0 | 0.00 | 0.38 | 0.22 | 53 | 1010.0 |
| 20260507164906 | 62 | 313 | 2.0 | 11.0 | 0.00 | 0.38 | 0.22 | 49 | 1010.0 |
| 20260507164613 | 61 | 261 | 4.0 | 11.0 | 0.00 | 0.38 | 0.22 | 45 | 1009.9 |
| 20260507164543 | 61 | 271 | 5.0 | 11.0 | 0.00 | 0.38 | 0.22 | 47 | 1009.4 |
| 20260507164338 | 62 | 355 | 5.0 | 11.0 | 0.00 | 0.38 | 0.22 | 45 | 1010.1 |
| 20260507163847 | 61 | 295 | 4.0 | 9.0 | 0.00 | 0.38 | 0.22 | 46 | 1010.2 |
| 20260507163339 | 61 | 275 | 4.0 | 15.0 | 0.00 | 0.38 | 0.22 | 48 | 1010.2 |
| 20260507163041 | 60 | 268 | 6.0 | 15.0 | 0.00 | 0.38 | 0.22 | 46 | 1009.6 |
| 20260507163010 | 61 | 355 | 6.0 | 15.0 | 0.00 | 0.38 | 0.22 | 46 | 1010.2 |
| 20260507162906 | 62 | 277 | 6.0 | 13.0 | 0.00 | 0.38 | 0.22 | 52 | 1010.4 |
| 20260507162354 | 62 | 311 | 5.0 | 13.0 | 0.00 | 0.38 | 0.22 | 49 | 1010.4 |
| 20260507161845 | 60 | 360 | 4.0 | 14.0 | 0.00 | 0.38 | 0.22 | 52 | 1010.3 |
| 20260507161609 | 60 | 13 | 3.0 | 14.0 | 0.00 | 0.38 | 0.22 | 51 | 1010.2 |
| 20260507161549 | 60 | 24 | 1.0 | 14.0 | 0.00 | 0.38 | 0.22 | 54 | 1009.9 |
| 20260507161335 | 60 | 70 | 2.0 | 14.0 | 0.00 | 0.38 | 0.22 | 48 | 1010.3 |
| 20260507160845 | 60 | 355 | 5.0 | 10.0 | 0.00 | 0.38 | 0.22 | 47 | 1010.4 |
| 20260507160417 | 61 | 327 | 3.0 | 10.0 | 0.00 | 0.38 | 0.22 | 50 | 1010.5 |
| 20260507160117 | 60 | 308 | 2.0 | 13.0 | 0.00 | 0.38 | 0.22 | 56 | 1010.5 |
| 20260507160041 | 59 | 315 | 3.0 | 14.0 | 0.00 | 0.38 | 0.22 | 57 | 1010.0 |
| 20260507155842 | 59 | 355 | 4.0 | 14.0 | 0.00 | 0.38 | 0.22 | 47 | 1010.5 |
| 20260507155351 | 60 | 70 | 7.0 | 14.0 | 0.00 | 0.38 | 0.22 | 51 | 1010.6 |
| 20260507154842 | 61 | 185 | 4.0 | 8.0 | 0.00 | 0.38 | 0.22 | 57 | 1010.6 |
| 20260507154605 | 60 | 306 | 2.0 | 8.0 | 0.00 | 0.38 | 0.22 | 50 | 1010.7 |
| 20260507154542 | 60 | 352 | 2.0 | 9.0 | 0.00 | 0.38 | 0.22 | 52 | 1010.1 |
| 20260507154351 | 60 | 310 | 3.0 | 8.0 | 0.00 | 0.38 | 0.22 | 50 | 1010.7 |
| 20260507153842 | 59 | 60 | 2.0 | 10.0 | 0.00 | 0.38 | 0.22 | 54 | 1010.8 |
| 20260507153354 | 59 | 5 | 5.0 | 10.0 | 0.00 | 0.38 | 0.22 | 53 | 1010.9 |
| 20260507153039 | 59 | 300 | 4.0 | 11.0 | 0.00 | 0.38 | 0.22 | 49 | 1010.2 |
| 20260507153001 | 59 | 284 | 4.0 | 10.0 | 0.00 | 0.38 | 0.22 | 51 | 1010.8 |
| 20260507152900 | 59 | 226 | 4.0 | 11.0 | 0.00 | 0.38 | 0.22 | 53 | 1010.9 |
| 20260507152350 | 59 | 351 | 5.0 | 11.0 | 0.00 | 0.38 | 0.22 | 53 | 1011.0 |
| 20260507151840 | 59 | 303 | 5.0 | 11.0 | 0.00 | 0.38 | 0.22 | 49 | 1010.9 |
| 20260507151608 | 59 | 255 | 3.0 | 11.0 | 0.00 | 0.38 | 0.22 | 57 | 1010.9 |
| 20260507151544 | 59 | 279 | 3.0 | 11.0 | 0.00 | 0.38 | 0.22 | 56 | 1010.3 |
| 20260507151351 | 59 | 36 | 4.0 | 11.0 | 0.00 | 0.38 | 0.22 | 60 | 1011.0 |
| 20260507150841 | 59 | 295 | 3.0 | 9.0 | 0.00 | 0.38 | 0.22 | 57 | 1011.0 |
| 20260507150352 | 58 | 275 | 4.0 | 11.0 | 0.00 | 0.38 | 0.22 | 56 | 1011.0 |
| 20260507150117 | 58 | 300 | 3.0 | 11.0 | 0.00 | 0.38 | 0.22 | 53 | 1011.0 |
| 20260507150043 | 58 | 314 | 3.0 | 13.0 | 0.00 | 0.38 | 0.22 | 55 | 1010.4 |
| 20260507145859 | 58 | 5 | 4.0 | 13.0 | 0.00 | 0.38 | 0.22 | 52 | 1011.1 |
| 20260507145410 | 57 | 309 | 5.0 | 13.0 | 0.00 | 0.38 | 0.22 | 55 | 1011.1 |
| 20260507144838 | 58 | 273 | 5.0 | 14.0 | 0.00 | 0.38 | 0.22 | 57 | 1011.0 |
| 20260507144606 | 57 | 273 | 5.0 | 14.0 | 0.00 | 0.38 | 0.22 | 56 | 1011.0 |
| 20260507144543 | 57 | 308 | 6.0 | 14.0 | 0.00 | 0.38 | 0.22 | 53 | 1010.4 |
| 20260507144348 | 57 | 298 | 6.0 | 14.0 | 0.00 | 0.38 | 0.22 | 55 | 1011.0 |
| 20260507143838 | 57 | 344 | 6.0 | 14.0 | 0.00 | 0.38 | 0.22 | 55 | 1010.9 |
| 20260507143349 | 57 | 9 | 5.0 | 13.0 | 0.00 | 0.38 | 0.22 | 60 | 1010.9 |
| 20260507143132 | 56 | 318 | 4.0 | 13.0 | 0.00 | 0.38 | 0.22 | 61 | 1010.9 |
| 20260507143044 | 56 | 5 | 4.0 | 13.0 | 0.00 | 0.38 | 0.22 | 58 | 1010.4 |
| 20260507142915 | 57 | 5 | 5.0 | 13.0 | 0.00 | 0.38 | 0.22 | 60 | 1010.9 |
| 20260507142406 | 57 | 327 | 4.0 | 12.0 | 0.00 | 0.38 | 0.22 | 61 | 1010.9 |
| 20260507141855 | 57 | 286 | 4.0 | 8.0 | 0.00 | 0.38 | 0.22 | 64 | 1011.1 |
| 20260507141636 | 55 | 355 | 2.0 | 9.0 | 0.00 | 0.38 | 0.22 | 66 | 1010.9 |
| 20260507141539 | 55 | 294 | 3.0 | 11.0 | 0.00 | 0.38 | 0.22 | 66 | 1010.3 |
| 20260507141346 | 55 | 274 | 3.0 | 11.0 | 0.00 | 0.38 | 0.22 | 68 | 1011.0 |
| 20260507140854 | 55 | 335 | 5.0 | 11.0 | 0.00 | 0.38 | 0.22 | 69 | 1010.9 |
| 20260507140345 | 55 | 308 | 5.0 | 11.0 | 0.00 | 0.38 | 0.22 | 72 | 1011.0 |
| 20260507140109 | 54 | 324 | 2.0 | 7.0 | 0.00 | 0.38 | 0.22 | 75 | 1010.9 |
| 20260507140038 | 54 | 312 | 2.0 | 8.0 | 0.00 | 0.38 | 0.22 | 75 | 1010.5 |
| 20260507135852 | 54 | 304 | 3.0 | 8.0 | 0.00 | 0.38 | 0.22 | 74 | 1011.0 |
| 20260507135341 | 53 | 312 | 3.0 | 10.0 | 0.00 | 0.38 | 0.22 | 77 | 1011.0 |
| 20260507134913 | 53 | 38 | 5.0 | 10.0 | 0.00 | 0.38 | 0.22 | 78 | 1011.1 |
| 20260507134542 | 52 | 355 | 1.0 | 8.0 | 0.00 | 0.38 | 0.22 | 80 | 1010.6 |
| 20260507134507 | 52 | 14 | 1.0 | 8.0 | 0.00 | 0.38 | 0.22 | 80 | 1011.1 |
| 20260507134402 | 53 | 54 | 1.0 | 8.0 | 0.00 | 0.38 | 0.22 | 79 | 1011.2 |
| 20260507133852 | 53 | 322 | 4.0 | 8.0 | 0.00 | 0.38 | 0.22 | 79 | 1011.3 |
| 20260507133343 | 53 | 336 | 3.0 | 11.0 | 0.00 | 0.38 | 0.22 | 80 | 1011.2 |
| 20260507133108 | 52 | 296 | 4.0 | 11.0 | 0.00 | 0.38 | 0.22 | 80 | 1011.0 |
| 20260507133046 | 52 | 263 | 6.0 | 11.0 | 0.00 | 0.38 | 0.22 | 80 | 1010.5 |
| 20260507132850 | 52 | 355 | 4.0 | 11.0 | 0.00 | 0.38 | 0.22 | 82 | 1011.1 |
| 20260507132342 | 52 | 5 | 2.0 | 8.0 | 0.00 | 0.38 | 0.22 | 83 | 1011.1 |
| 20260507131851 | 52 | 307 | 4.0 | 12.0 | 0.00 | 0.38 | 0.22 | 83 | 1011.0 |
| 20260507131620 | 51 | 288 | 4.0 | 12.0 | 0.00 | 0.38 | 0.22 | 82 | 1010.8 |
| 20260507131547 | 51 | 317 | 4.0 | 12.0 | 0.00 | 0.38 | 0.22 | 82 | 1010.3 |
| 20260507131341 | 52 | 320 | 6.0 | 12.0 | 0.00 | 0.38 | 0.22 | 82 | 1011.0 |
| 20260507130850 | 51 | 360 | 6.0 | 12.0 | 0.00 | 0.38 | 0.22 | 84 | 1011.0 |
| 20260507130341 | 51 | 278 | 4.0 | 10.0 | 0.00 | 0.38 | 0.22 | 85 | 1011.0 |
| 20260507130106 | 50 | 13 | 6.0 | 10.0 | 0.00 | 0.38 | 0.22 | 85 | 1010.9 |
| 20260507130050 | 50 | 355 | 4.0 | 10.0 | 0.00 | 0.38 | 0.22 | 86 | 1010.2 |
| 20260507125910 | 51 | 313 | 4.0 | 9.0 | 0.00 | 0.38 | 0.22 | 87 | 1011.0 |
| 20260507125338 | 51 | 311 | 3.0 | 10.0 | 0.00 | 0.38 | 0.22 | 89 | 1011.0 |
| 20260507124849 | 50 | 28 | 3.0 | 10.0 | 0.00 | 0.38 | 0.22 | 89 | 1011.1 |
| 20260507124618 | 50 | 304 | 2.0 | 10.0 | 0.00 | 0.38 | 0.22 | 90 | 1011.0 |
| 20260507124540 | 50 | 337 | 2.0 | 10.0 | 0.00 | 0.38 | 0.22 | 89 | 1010.3 |
| 20260507124343 | 50 | 284 | 3.0 | 8.0 | 0.00 | 0.38 | 0.22 | 90 | 1011.1 |
| 20260507123835 | 50 | 284 | 2.0 | 8.0 | 0.00 | 0.38 | 0.22 | 93 | 1011.1 |
| 20260507123346 | 50 | 35 | 3.0 | 8.0 | 0.00 | 0.38 | 0.22 | 93 | 1011.0 |
| 20260507123106 | 50 | 319 | 2.0 | 8.0 | 0.00 | 0.38 | 0.22 | 93 | 1010.9 |
| 20260507123044 | 50 | 315 | 2.0 | 8.0 | 0.00 | 0.38 | 0.22 | 93 | 1010.2 |
| 20260507122852 | 50 | 5 | 3.0 | 8.0 | 0.00 | 0.38 | 0.22 | 93 | 1011.0 |
| 20260507122342 | 50 | 16 | 2.0 | 9.0 | 0.00 | 0.38 | 0.22 | 94 | 1011.0 |
| 20260507121852 | 50 | 314 | 1.0 | 9.0 | 0.00 | 0.38 | 0.22 | 94 | 1011.0 |
| 20260507121617 | 49 | 281 | 4.0 | 9.0 | 0.00 | 0.38 | 0.22 | 94 | 1010.9 |
| 20260507121541 | 49 | 302 | 2.0 | 8.0 | 0.00 | 0.38 | 0.22 | 93 | 1010.3 |
| 20260507121343 | 50 | 308 | 2.0 | 5.0 | 0.00 | 0.38 | 0.22 | 94 | 1011.0 |
| 20260507120912 | 50 | 344 | 2.0 | 4.0 | 0.00 | 0.38 | 0.22 | 94 | 1011.0 |
| 20260507120343 | 50 | 306 | 2.0 | 6.0 | 0.00 | 0.38 | 0.22 | 94 | 1011.0 |
| 20260507120106 | 49 | 288 | 2.0 | 6.0 | 0.00 | 0.38 | 0.22 | 95 | 1010.9 |
| 20260507120040 | 49 | 0 | 2.0 | 7.0 | 0.00 | 0.38 | 0.22 | 94 | 1010.3 |
| 20260507115910 | 50 | 306 | 3.0 | 6.0 | 0.00 | 0.38 | 0.22 | 95 | 1011.0 |
| 20260507115339 | 49 | 289 | 1.0 | 5.0 | 0.00 | 0.38 | 0.22 | 95 | 1010.9 |
| 20260507114849 | 49 | 301 | 2.0 | 5.0 | 0.00 | 0.38 | 0.22 | 95 | 1010.8 |
| 20260507114617 | 49 | 286 | 2.0 | 5.0 | 0.00 | 0.38 | 0.22 | 95 | 1010.7 |
| 20260507114540 | 49 | 302 | 1.0 | 5.0 | 0.00 | 0.38 | 0.22 | 94 | 1010.1 |
| 20260507114338 | 49 | 300 | 1.0 | 5.0 | 0.00 | 0.38 | 0.22 | 95 | 1010.8 |
| 20260507113849 | 49 | 314 | 1.0 | 2.0 | 0.00 | 0.38 | 0.22 | 95 | 1010.7 |
| 20260507113341 | 49 | 9 | 1.0 | 3.0 | 0.00 | 0.38 | 0.22 | 95 | 1010.6 |
| 20260507113107 | 49 | 311 | 0.0 | 3.0 | 0.00 | 0.38 | 0.22 | 95 | 1010.4 |
| 20260507113042 | 49 | 313 | 1.0 | 3.0 | 0.00 | 0.38 | 0.22 | 95 | 1009.8 |
| 20260507112846 | 49 | 297 | 2.0 | 3.0 | 0.00 | 0.38 | 0.22 | 95 | 1010.6 |
| 20260507112335 | 49 | 296 | 0.0 | 2.0 | 0.00 | 0.38 | 0.22 | 95 | 1010.5 |
| 20260507111846 | 49 | 302 | 0.0 | 2.0 | 0.00 | 0.38 | 0.22 | 95 | 1010.6 |
| 20260507111614 | 48 | 301 | 0.0 | 3.0 | 0.00 | 0.38 | 0.22 | 95 | 1010.5 |
| 20260507111537 | 49 | 301 | 0.0 | 4.0 | 0.00 | 0.38 | 0.22 | 95 | 1009.9 |
| 20260507111336 | 49 | 317 | 0.0 | 4.0 | 0.00 | 0.38 | 0.22 | 95 | 1010.6 |
| 20260507110846 | 49 | 293 | 1.0 | 4.0 | 0.00 | 0.38 | 0.22 | 95 | 1010.6 |
| 20260507110357 | 49 | 297 | 1.0 | 2.0 | 0.00 | 0.38 | 0.22 | 95 | 1010.4 |
| 20260507110107 | 48 | 327 | 0.0 | 3.0 | 0.00 | 0.38 | 0.22 | 95 | 1010.2 |
| 20260507110055 | 48 | 0 | 0.0 | 3.0 | 0.00 | 0.38 | 0.22 | 95 | 1009.8 |
| 20260507105845 | 49 | 298 | 1.0 | 3.0 | 0.00 | 0.38 | 0.22 | 95 | 1010.4 |
| 20260507105335 | 49 | 287 | 1.0 | 3.0 | 0.00 | 0.38 | 0.22 | 95 | 1010.4 |
| 20260507104845 | 49 | 290 | 0.0 | 0.0 | 0.00 | 0.38 | 0.22 | 95 | 1010.3 |
| 20260507104612 | 48 | 309 | 0.0 | 4.0 | 0.00 | 0.38 | 0.22 | 95 | 1010.1 |
| 20260507104549 | 48 | 0 | 0.0 | 4.0 | 0.00 | 0.38 | 0.22 | 95 | 1009.7 |
| 20260507104354 | 49 | 309 | 0.0 | 4.0 | 0.00 | 0.38 | 0.22 | 95 | 1010.3 |
| 20260507103844 | 49 | 289 | 1.0 | 4.0 | 0.00 | 0.38 | 0.22 | 95 | 1010.1 |
| 20260507103356 | 49 | 292 | 0.0 | 2.0 | 0.00 | 0.38 | 0.22 | 95 | 1010.1 |
| 20260507103122 | 48 | 298 | 0.0 | 4.0 | 0.00 | 0.38 | 0.22 | 95 | 1009.9 |
| 20260507103106 | 48 | 0 | 0.0 | 4.0 | 0.00 | 0.38 | 0.22 | 95 | 1009.4 |
| 20260507102844 | 49 | 306 | 0.0 | 4.0 | 0.00 | 0.38 | 0.22 | 95 | 1010.0 |
| 20260507102415 | 49 | 316 | 1.0 | 3.0 | 0.00 | 0.38 | 0.22 | 95 | 1009.8 |
| 20260507101844 | 49 | 298 | 1.0 | 7.0 | 0.00 | 0.38 | 0.22 | 95 | 1009.8 |
| 20260507101613 | 48 | 319 | 0.0 | 7.0 | 0.00 | 0.38 | 0.22 | 95 | 1009.6 |
| 20260507101540 | 48 | 319 | 1.0 | 7.0 | 0.00 | 0.38 | 0.22 | 95 | 1009.1 |
| 20260507101335 | 49 | 334 | 2.0 | 7.0 | 0.00 | 0.38 | 0.22 | 95 | 1009.9 |
| 20260507100845 | 49 | 288 | 2.0 | 5.0 | 0.00 | 0.38 | 0.22 | 95 | 1009.6 |
| 20260507100340 | 49 | 326 | 2.0 | 4.0 | 0.00 | 0.38 | 0.22 | 95 | 1009.6 |
| 20260507100120 | 49 | 296 | 0.0 | 3.0 | 0.00 | 0.38 | 0.22 | 96 | 1009.6 |
| 20260507100049 | 49 | 0 | 1.0 | 5.0 | 0.00 | 0.38 | 0.22 | 95 | 1009.1 |
| 20260507095846 | 49 | 309 | 1.0 | 5.0 | 0.00 | 0.38 | 0.22 | 96 | 1009.8 |
| 20260507095337 | 49 | 307 | 1.0 | 5.0 | 0.00 | 0.38 | 0.22 | 96 | 1009.9 |
| 20260507094848 | 49 | 299 | 2.0 | 5.0 | 0.00 | 0.38 | 0.22 | 96 | 1009.8 |
| 20260507094611 | 49 | 302 | 2.0 | 5.0 | 0.00 | 0.38 | 0.22 | 96 | 1009.5 |
| 20260507094537 | 49 | 294 | 1.0 | 8.0 | 0.00 | 0.38 | 0.22 | 95 | 1008.8 |
| 20260507094357 | 49 | 321 | 1.0 | 8.0 | 0.00 | 0.38 | 0.22 | 96 | 1009.6 |
| 20260507093846 | 49 | 280 | 4.0 | 8.0 | 0.01 | 0.38 | 0.22 | 96 | 1009.7 |
| 20260507093353 | 49 | 250 | 3.0 | 7.0 | 0.01 | 0.38 | 0.22 | 96 | 1009.5 |
| 20260507093113 | 49 | 297 | 2.0 | 5.0 | 0.01 | 0.38 | 0.22 | 96 | 1009.3 |
| 20260507093042 | 49 | 329 | 2.0 | 6.0 | 0.01 | 0.38 | 0.22 | 95 | 1008.8 |
| 20260507092838 | 50 | 315 | 3.0 | 6.0 | 0.02 | 0.38 | 0.22 | 96 | 1009.5 |
| 20260507092349 | 50 | 292 | 2.0 | 5.0 | 0.02 | 0.38 | 0.22 | 96 | 1009.6 |
| 20260507091838 | 50 | 42 | 3.0 | 5.0 | 0.02 | 0.38 | 0.22 | 96 | 1009.6 |
| 20260507091607 | 49 | 303 | 1.0 | 5.0 | 0.03 | 0.38 | 0.22 | 96 | 1009.4 |
| 20260507091545 | 49 | 311 | 1.0 | 5.0 | 0.03 | 0.38 | 0.22 | 96 | 1008.8 |
| 20260507091409 | 50 | 300 | 2.0 | 5.0 | 0.03 | 0.38 | 0.22 | 96 | 1009.5 |
| 20260507090839 | 50 | 286 | 3.0 | 5.0 | 0.04 | 0.38 | 0.22 | 96 | 1009.5 |
| 20260507090350 | 50 | 300 | 3.0 | 5.0 | 0.05 | 0.38 | 0.22 | 96 | 1009.4 |
| 20260507090116 | 50 | 42 | 3.0 | 5.0 | 0.06 | 0.38 | 0.22 | 96 | 1009.1 |
| 20260507090046 | 50 | 310 | 2.0 | 6.0 | 0.06 | 0.38 | 0.22 | 96 | 1008.6 |
| 20260507085840 | 50 | 300 | 1.0 | 5.0 | 0.06 | 0.38 | 0.22 | 96 | 1009.4 |
| 20260507085350 | 50 | 315 | 1.0 | 4.0 | 0.07 | 0.38 | 0.22 | 96 | 1009.6 |
| 20260507084840 | 50 | 293 | 1.0 | 7.0 | 0.07 | 0.38 | 0.22 | 96 | 1009.4 |
| 20260507084608 | 50 | 326 | 1.0 | 7.0 | 0.08 | 0.38 | 0.22 | 96 | 1009.3 |
| 20260507084545 | 50 | 275 | 1.0 | 7.0 | 0.08 | 0.38 | 0.22 | 96 | 1008.7 |
| 20260507084351 | 50 | 10 | 2.0 | 7.0 | 0.08 | 0.38 | 0.22 | 96 | 1009.5 |
| 20260507083842 | 50 | 299 | 1.0 | 4.0 | 0.08 | 0.37 | 0.21 | 96 | 1009.5 |
| 20260507083352 | 51 | 313 | 3.0 | 4.0 | 0.08 | 0.37 | 0.21 | 96 | 1009.4 |
| 20260507083115 | 50 | 286 | 1.0 | 3.0 | 0.09 | 0.37 | 0.21 | 96 | 1009.1 |
| 20260507083037 | 50 | 293 | 0.0 | 3.0 | 0.09 | 0.37 | 0.21 | 96 | 1008.7 |
| 20260507082837 | 51 | 298 | 1.0 | 3.0 | 0.08 | 0.36 | 0.20 | 96 | 1009.4 |
| 20260507082348 | 51 | 285 | 1.0 | 5.0 | 0.08 | 0.36 | 0.20 | 96 | 1009.9 |
| 20260507081839 | 51 | 290 | 2.0 | 5.0 | 0.08 | 0.36 | 0.20 | 96 | 1009.6 |
| 20260507081606 | 50 | 299 | 0.0 | 3.0 | 0.07 | 0.35 | 0.19 | 96 | 1009.2 |
| 20260507081538 | 50 | 0 | 0.0 | 4.0 | 0.07 | 0.35 | 0.19 | 96 | 1008.7 |
| 20260507081348 | 51 | 5 | 1.0 | 4.0 | 0.08 | 0.35 | 0.19 | 96 | 1009.4 |
| 20260507080859 | 51 | 299 | 1.0 | 4.0 | 0.07 | 0.34 | 0.18 | 96 | 1009.7 |
| 20260507080351 | 51 | 334 | 0.0 | 4.0 | 0.07 | 0.33 | 0.17 | 96 | 1009.6 |
| 20260507080115 | 51 | 31 | 0.0 | 4.0 | 0.06 | 0.32 | 0.16 | 96 | 1009.6 |
| 20260507080046 | 50 | 355 | 0.0 | 6.0 | 0.06 | 0.32 | 0.16 | 96 | 1008.9 |
| 20260507075838 | 51 | 355 | 1.0 | 6.0 | 0.07 | 0.32 | 0.16 | 96 | 1009.8 |
| 20260507075348 | 51 | 333 | 2.0 | 6.0 | 0.07 | 0.31 | 0.15 | 96 | 1009.8 |
| 20260507074840 | 51 | 24 | 1.0 | 6.0 | 0.08 | 0.31 | 0.15 | 96 | 1009.6 |
| 20260507074608 | 51 | 313 | 1.0 | 6.0 | 0.07 | 0.30 | 0.14 | 96 | 1009.5 |
| 20260507074541 | 51 | 328 | 1.0 | 6.0 | 0.07 | 0.30 | 0.14 | 95 | 1008.9 |
| 20260507074350 | 51 | 306 | 2.0 | 6.0 | 0.08 | 0.30 | 0.14 | 96 | 1009.6 |
| 20260507073901 | 51 | 295 | 1.0 | 3.0 | 0.08 | 0.29 | 0.13 | 96 | 1009.8 |
| 20260507073351 | 51 | 302 | 0.0 | 8.0 | 0.08 | 0.29 | 0.13 | 96 | 1009.8 |
| 20260507073137 | 51 | 301 | 0.0 | 8.0 | 0.07 | 0.28 | 0.12 | 96 | 1009.6 |
| 20260507073045 | 51 | 0 | 3.0 | 8.0 | 0.07 | 0.28 | 0.12 | 95 | 1008.9 |
| 20260507072858 | 51 | 290 | 3.0 | 7.0 | 0.07 | 0.28 | 0.12 | 95 | 1009.7 |
| 20260507072347 | 51 | 309 | 1.0 | 4.0 | 0.08 | 0.28 | 0.12 | 95 | 1009.6 |
| 20260507071837 | 51 | 44 | 1.0 | 4.0 | 0.08 | 0.28 | 0.12 | 95 | 1009.6 |
| 20260507071605 | 51 | 298 | 0.0 | 4.0 | 0.08 | 0.28 | 0.12 | 95 | 1009.6 |
| 20260507071545 | 51 | 0 | 0.0 | 5.0 | 0.08 | 0.28 | 0.12 | 95 | 1008.9 |
| 20260507071347 | 51 | 300 | 1.0 | 5.0 | 0.07 | 0.27 | 0.11 | 95 | 1009.6 |
| 20260507070842 | 52 | 355 | 0.0 | 5.0 | 0.08 | 0.27 | 0.11 | 95 | 1009.4 |
| 20260507070408 | 52 | 280 | 0.0 | 3.0 | 0.07 | 0.26 | 0.10 | 95 | 1009.7 |
| 20260507070111 | 51 | 280 | 1.0 | 3.0 | 0.08 | 0.26 | 0.10 | 95 | 1009.6 |
| 20260507070100 | 51 | 0 | 1.0 | 3.0 | 0.08 | 0.26 | 0.10 | 94 | 1008.9 |
| 20260507065915 | 52 | 313 | 1.0 | 3.0 | 0.07 | 0.25 | 0.09 | 95 | 1009.6 |
| 20260507065343 | 52 | 298 | 2.0 | 4.0 | 0.06 | 0.24 | 0.08 | 95 | 1010.0 |
| 20260507064837 | 52 | 355 | 2.0 | 5.0 | 0.06 | 0.23 | 0.07 | 94 | 1009.4 |
| 20260507064621 | 52 | 323 | 2.0 | 5.0 | 0.06 | 0.23 | 0.07 | 94 | 1009.3 |
| 20260507064549 | 52 | 276 | 2.0 | 7.0 | 0.07 | 0.23 | 0.07 | 94 | 1008.8 |
| 20260507064348 | 52 | 20 | 2.0 | 5.0 | 0.06 | 0.22 | 0.06 | 94 | 1009.5 |
| 20260507063837 | 52 | 29 | 1.0 | 7.0 | 0.05 | 0.21 | 0.05 | 94 | 1009.2 |
| 20260507063349 | 52 | 302 | 2.0 | 4.0 | 0.05 | 0.21 | 0.05 | 94 | 1009.5 |
| 20260507063122 | 52 | 281 | 2.0 | 4.0 | 0.05 | 0.21 | 0.05 | 94 | 1009.2 |
| 20260507063038 | 52 | 289 | 2.0 | 4.0 | 0.05 | 0.21 | 0.05 | 93 | 1008.6 |
| 20260507062835 | 53 | 344 | 2.0 | 4.0 | 0.05 | 0.21 | 0.05 | 93 | 1009.2 |
| 20260507062345 | 53 | 355 | 0.0 | 3.0 | 0.04 | 0.20 | 0.04 | 93 | 1009.1 |
| 20260507061855 | 53 | 296 | 0.0 | 3.0 | 0.04 | 0.20 | 0.04 | 93 | 1009.1 |
| 20260507061619 | 52 | 300 | 0.0 | 4.0 | 0.04 | 0.20 | 0.04 | 93 | 1009.0 |
| 20260507061539 | 52 | 320 | 0.0 | 4.0 | 0.04 | 0.20 | 0.04 | 92 | 1008.6 |
| 20260507061343 | 53 | 307 | 1.0 | 4.0 | 0.04 | 0.20 | 0.04 | 93 | 1009.2 |
| 20260507060852 | 53 | 298 | 1.0 | 4.0 | 0.03 | 0.19 | 0.03 | 92 | 1009.5 |
| 20260507060340 | 54 | 301 | 2.0 | 4.0 | 0.03 | 0.19 | 0.03 | 92 | 1009.4 |
| 20260507060105 | 53 | 306 | 0.0 | 4.0 | 0.02 | 0.18 | 0.02 | 92 | 1009.1 |
| 20260507060045 | 53 | 0 | 2.0 | 4.0 | 0.02 | 0.18 | 0.02 | 91 | 1008.6 |
| 20260507055909 | 54 | 290 | 3.0 | 4.0 | 0.02 | 0.18 | 0.02 | 92 | 1009.4 |
| 20260507055355 | 54 | 300 | 1.0 | 5.0 | 0.02 | 0.18 | 0.02 | 91 | 1009.1 |
| 20260507054843 | 54 | 338 | 2.0 | 5.0 | 0.01 | 0.17 | 0.01 | 90 | 1008.6 |
| 20260507054611 | 54 | 5 | 1.0 | 5.0 | 0.00 | 0.16 | 0.00 | 90 | 1008.6 |
| 20260507054605 | 54 | 319 | 0.0 | 5.0 | 0.00 | 0.16 | 0.00 | 90 | 1008.1 |
| 20260507054415 | 54 | 288 | 1.0 | 5.0 | 0.00 | 0.16 | 0.00 | 90 | 1008.7 |
| 20260507053845 | 55 | 291 | 2.0 | 5.0 | 0.00 | 0.16 | 0.00 | 90 | 1008.6 |
| 20260507053356 | 55 | 27 | 1.0 | 6.0 | 0.00 | 0.16 | 0.00 | 89 | 1008.7 |
| 20260507053120 | 54 | 331 | 2.0 | 6.0 | 0.00 | 0.16 | 0.00 | 89 | 1008.8 |
| 20260507053041 | 54 | 0 | 2.0 | 7.0 | 0.00 | 0.16 | 0.00 | 89 | 1008.3 |
| 20260507052843 | 55 | 334 | 3.0 | 6.0 | 0.00 | 0.16 | 0.00 | 90 | 1008.9 |
| 20260507052354 | 55 | 350 | 0.0 | 4.0 | 0.00 | 0.16 | 0.00 | 90 | 1008.7 |
| 20260507051844 | 55 | 316 | 2.0 | 4.0 | 0.00 | 0.16 | 0.00 | 89 | 1008.8 |
| 20260507051612 | 55 | 23 | 2.0 | 4.0 | 0.00 | 0.16 | 0.00 | 89 | 1008.8 |
| 20260507051548 | 55 | 296 | 1.0 | 4.0 | 0.00 | 0.16 | 0.00 | 89 | 1008.2 |
| 20260507051353 | 55 | 325 | 1.0 | 4.0 | 0.00 | 0.16 | 0.00 | 89 | 1008.8 |
| 20260507050843 | 56 | 293 | 1.0 | 5.0 | 0.00 | 0.16 | 0.00 | 90 | 1009.0 |
| 20260507050354 | 56 | 289 | 1.0 | 5.0 | 0.00 | 0.16 | 0.00 | 90 | 1009.1 |
| 20260507050118 | 55 | 50 | 2.0 | 6.0 | 0.00 | 0.16 | 0.00 | 90 | 1008.8 |
| 20260507050047 | 55 | 323 | 1.0 | 7.0 | 0.00 | 0.16 | 0.00 | 90 | 1008.3 |
| 20260507045840 | 56 | 355 | 1.0 | 6.0 | 0.00 | 0.16 | 0.00 | 90 | 1008.8 |
| 20260507045410 | 56 | 13 | 2.0 | 9.0 | 0.00 | 0.16 | 0.00 | 91 | 1008.9 |
| 20260507044839 | 56 | 345 | 5.0 | 9.0 | 0.00 | 0.16 | 0.00 | 91 | 1009.0 |
| 20260507044607 | 56 | 234 | 3.0 | 8.0 | 0.00 | 0.16 | 0.00 | 91 | 1008.8 |
| 20260507044540 | 56 | 279 | 2.0 | 7.0 | 0.00 | 0.16 | 0.00 | 91 | 1008.4 |
| 20260507044350 | 56 | 304 | 2.0 | 6.0 | 0.00 | 0.16 | 0.00 | 92 | 1009.0 |
| 20260507043858 | 56 | 280 | 2.0 | 6.0 | 0.00 | 0.16 | 0.00 | 92 | 1009.0 |
| 20260507043349 | 56 | 331 | 1.0 | 5.0 | 0.00 | 0.16 | 0.00 | 92 | 1008.9 |
| 20260507043113 | 56 | 314 | 2.0 | 5.0 | 0.00 | 0.16 | 0.00 | 92 | 1008.8 |
| 20260507043044 | 56 | 290 | 2.0 | 4.0 | 0.00 | 0.16 | 0.00 | 92 | 1008.3 |
| 20260507042855 | 56 | 298 | 1.0 | 4.0 | 0.00 | 0.16 | 0.00 | 92 | 1009.0 |
| 20260507042406 | 56 | 318 | 1.0 | 5.0 | 0.00 | 0.16 | 0.00 | 92 | 1009.1 |
| 20260507041836 | 57 | 307 | 0.0 | 5.0 | 0.00 | 0.16 | 0.00 | 92 | 1009.1 |
| 20260507041618 | 56 | 309 | 2.0 | 6.0 | 0.00 | 0.16 | 0.00 | 92 | 1009.0 |
| 20260507041558 | 56 | 274 | 1.0 | 5.0 | 0.00 | 0.16 | 0.00 | 91 | 1008.7 |
| 20260507041346 | 57 | 287 | 1.0 | 5.0 | 0.00 | 0.16 | 0.00 | 92 | 1009.1 |
| 20260507040836 | 57 | 286 | 3.0 | 5.0 | 0.00 | 0.16 | 0.00 | 92 | 1009.1 |
| 20260507040346 | 57 | 298 | 1.0 | 8.0 | 0.00 | 0.16 | 0.00 | 92 | 1009.1 |
| 20260507040110 | 56 | 292 | 1.0 | 9.0 | 0.00 | 0.16 | 0.00 | 92 | 1008.9 |
| 20260507040043 | 56 | 0 | 3.0 | 9.0 | 0.00 | 0.16 | 0.00 | 92 | 1008.5 |
| 20260507035914 | 57 | 291 | 3.0 | 9.0 | 0.00 | 0.16 | 0.16 | 92 | 1009.1 |
| 20260507035343 | 57 | 322 | 4.0 | 9.0 | 0.00 | 0.16 | 0.16 | 93 | 1008.9 |
| 20260507034854 | 57 | 292 | 1.0 | 6.0 | 0.00 | 0.16 | 0.16 | 93 | 1008.7 |
| 20260507034621 | 57 | 306 | 2.0 | 6.0 | 0.00 | 0.16 | 0.16 | 93 | 1008.5 |
| 20260507034540 | 57 | 276 | 2.0 | 6.0 | 0.00 | 0.16 | 0.16 | 92 | 1008.0 |
| 20260507034405 | 57 | 265 | 2.0 | 6.0 | 0.00 | 0.16 | 0.16 | 93 | 1008.6 |
| 20260507033914 | 57 | 319 | 3.0 | 5.0 | 0.00 | 0.16 | 0.16 | 93 | 1008.8 |
| 20260507033403 | 57 | 299 | 2.0 | 4.0 | 0.00 | 0.16 | 0.16 | 93 | 1008.8 |
| 20260507033108 | 57 | 322 | 1.0 | 3.0 | 0.00 | 0.16 | 0.16 | 93 | 1008.6 |
| 20260507033040 | 57 | 0 | 0.0 | 3.0 | 0.00 | 0.16 | 0.16 | 93 | 1008.0 |
| 20260507032849 | 57 | 308 | 1.0 | 3.0 | 0.00 | 0.16 | 0.16 | 93 | 1008.6 |
| 20260507032340 | 58 | 296 | 1.0 | 3.0 | 0.00 | 0.16 | 0.16 | 93 | 1008.6 |
| 20260507031851 | 58 | 280 | 0.0 | 3.0 | 0.00 | 0.16 | 0.16 | 94 | 1008.7 |
| 20260507031618 | 57 | 280 | 1.0 | 3.0 | 0.00 | 0.16 | 0.16 | 94 | 1008.6 |
| 20260507031541 | 57 | 283 | 0.0 | 2.0 | 0.00 | 0.16 | 0.16 | 93 | 1008.1 |
| 20260507031341 | 58 | 280 | 1.0 | 2.0 | 0.00 | 0.16 | 0.16 | 94 | 1008.7 |
| 20260507030851 | 58 | 280 | 1.0 | 2.0 | 0.00 | 0.16 | 0.16 | 93 | 1008.7 |
| 20260507030342 | 58 | 338 | 0.0 | 7.0 | 0.00 | 0.16 | 0.16 | 93 | 1008.9 |
| 20260507030106 | 57 | 344 | 0.0 | 8.0 | 0.00 | 0.16 | 0.16 | 93 | 1008.8 |
| 20260507030036 | 57 | 0 | 0.0 | 8.0 | 0.00 | 0.16 | 0.16 | 93 | 1008.2 |
| 20260507025849 | 58 | 256 | 1.0 | 8.0 | 0.00 | 0.16 | 0.16 | 93 | 1009.1 |
| 20260507025343 | 58 | 302 | 1.0 | 6.0 | 0.00 | 0.16 | 0.16 | 94 | 1009.1 |
| 20260507024851 | 58 | 331 | 2.0 | 6.0 | 0.00 | 0.16 | 0.16 | 94 | 1009.0 |
| 20260507024615 | 58 | 316 | 2.0 | 6.0 | 0.00 | 0.16 | 0.16 | 94 | 1008.9 |
| 20260507024545 | 58 | 349 | 1.0 | 8.0 | 0.00 | 0.16 | 0.16 | 94 | 1008.4 |
| 20260507024341 | 58 | 242 | 1.0 | 8.0 | 0.00 | 0.16 | 0.16 | 95 | 1009.1 |
| 20260507023851 | 58 | 285 | 2.0 | 8.0 | 0.00 | 0.16 | 0.16 | 96 | 1009.1 |
| 20260507023341 | 58 | 289 | 2.0 | 8.0 | 0.01 | 0.16 | 0.16 | 96 | 1009.1 |
| 20260507023103 | 58 | 333 | 1.0 | 8.0 | 0.01 | 0.16 | 0.16 | 97 | 1008.7 |
| 20260507023040 | 58 | 0 | 1.0 | 8.0 | 0.01 | 0.16 | 0.16 | 96 | 1008.2 |
| 20260507022909 | 59 | 327 | 2.0 | 8.0 | 0.01 | 0.16 | 0.16 | 97 | 1008.9 |
| 20260507022335 | 59 | 312 | 3.0 | 7.0 | 0.01 | 0.16 | 0.16 | 97 | 1008.9 |
| 20260507021845 | 59 | 297 | 2.0 | 4.0 | 0.01 | 0.16 | 0.16 | 98 | 1008.9 |
| 20260507021609 | 59 | 294 | 1.0 | 4.0 | 0.01 | 0.16 | 0.16 | 98 | 1008.7 |
| 20260507021540 | 59 | 360 | 1.0 | 4.0 | 0.01 | 0.16 | 0.16 | 98 | 1008.3 |
| 20260507021354 | 59 | 289 | 1.0 | 4.0 | 0.01 | 0.16 | 0.16 | 98 | 1009.0 |
| 20260507020843 | 59 | 283 | 2.0 | 5.0 | 0.01 | 0.16 | 0.16 | 98 | 1008.9 |
| 20260507020415 | 59 | 294 | 3.0 | 7.0 | 0.01 | 0.16 | 0.16 | 98 | 1008.8 |
| 20260507020116 | 59 | 292 | 2.0 | 7.0 | 0.01 | 0.16 | 0.16 | 98 | 1008.6 |
| 20260507020050 | 59 | 277 | 2.0 | 10.0 | 0.01 | 0.16 | 0.16 | 98 | 1008.1 |
| 20260507015841 | 60 | 273 | 3.0 | 9.0 | 0.01 | 0.16 | 0.16 | 98 | 1008.8 |
| 20260507015352 | 60 | 300 | 2.0 | 10.0 | 0.01 | 0.16 | 0.16 | 98 | 1008.7 |
| 20260507014842 | 60 | 302 | 4.0 | 12.0 | 0.01 | 0.16 | 0.16 | 99 | 1008.7 |
| 20260507014611 | 60 | 299 | 5.0 | 12.0 | 0.01 | 0.16 | 0.16 | 98 | 1008.5 |
| 20260507014547 | 60 | 277 | 3.0 | 12.0 | 0.01 | 0.16 | 0.16 | 98 | 1008.1 |
| 20260507014353 | 60 | 302 | 3.0 | 7.0 | 0.01 | 0.16 | 0.16 | 99 | 1008.7 |
| 20260507013843 | 60 | 284 | 3.0 | 7.0 | 0.01 | 0.16 | 0.16 | 99 | 1008.7 |
| 20260507013352 | 60 | 89 | 0.0 | 0.0 | 0.00 | 0.15 | 0.15 | 99 | 1008.3 |
| 20260507013117 | 60 | 89 | 0.0 | 0.0 | 0.00 | 0.15 | 0.15 | 98 | 1008.2 |
| 20260507013047 | 60 | 0 | 0.0 | 0.0 | 0.00 | 0.15 | 0.15 | 98 | 1007.8 |
| 20260507012839 | 60 | 89 | 0.0 | 0.0 | 0.00 | 0.15 | 0.15 | 98 | 1008.4 |
| 20260507012350 | 60 | 89 | 0.0 | 0.0 | 0.00 | 0.15 | 0.15 | 98 | 1008.4 |
| 20260507011840 | 60 | 89 | 0.0 | 0.0 | 0.00 | 0.15 | 0.15 | 98 | 1008.4 |
| 20260507011610 | 60 | 89 | 0.0 | 1.0 | 0.00 | 0.15 | 0.15 | 98 | 1008.2 |
| 20260507011553 | 60 | 0 | 0.0 | 1.0 | 0.00 | 0.15 | 0.15 | 98 | 1007.7 |
| 20260507011351 | 60 | 89 | 0.0 | 1.0 | 0.00 | 0.15 | 0.15 | 98 | 1008.3 |
| 20260507010413 | 60 | 89 | 0.0 | 0.0 | 0.00 | 0.15 | 0.15 | 98 | 1008.3 |
| 20260507010117 | 60 | 89 | 0.0 | 0.0 | 0.00 | 0.15 | 0.15 | 98 | 1008.1 |
| 20260507010045 | 60 | 0 | 0.0 | 1.0 | 0.00 | 0.15 | 0.15 | 98 | 1007.7 |
| 20260507005858 | 60 | 89 | 0.0 | 1.0 | 0.00 | 0.15 | 0.15 | 98 | 1008.2 |
| 20260507005409 | 60 | 89 | 0.0 | 1.0 | 0.00 | 0.15 | 0.15 | 98 | 1008.2 |
| 20260507004838 | 60 | 89 | 0.0 | 1.0 | 0.00 | 0.15 | 0.15 | 98 | 1008.1 |
| 20260507004605 | 60 | 89 | 0.0 | 1.0 | 0.00 | 0.15 | 0.15 | 98 | 1007.8 |
| 20260507004539 | 60 | 0 | 0.0 | 1.0 | 0.00 | 0.15 | 0.15 | 98 | 1007.5 |
| 20260507004348 | 60 | 89 | 0.0 | 1.0 | 0.00 | 0.15 | 0.15 | 98 | 1008.1 |
| 20260507003839 | 60 | 89 | 0.0 | 1.0 | 0.00 | 0.15 | 0.15 | 98 | 1008.0 |
| 20260507003349 | 60 | 89 | 0.0 | 1.0 | 0.00 | 0.15 | 0.15 | 98 | 1008.0 |
| 20260507003116 | 60 | 89 | 0.0 | 1.0 | 0.00 | 0.15 | 0.15 | 98 | 1007.8 |
| 20260507003039 | 60 | 0 | 0.0 | 1.0 | 0.00 | 0.15 | 0.15 | 98 | 1007.5 |
| 20260507002837 | 60 | 89 | 0.0 | 1.0 | 0.00 | 0.15 | 0.15 | 98 | 1008.0 |
| 20260507002347 | 60 | 89 | 0.0 | 1.0 | 0.00 | 0.15 | 0.15 | 98 | 1007.9 |
| 20260507001837 | 61 | 89 | 0.0 | 1.0 | 0.00 | 0.15 | 0.15 | 98 | 1008.0 |
| 20260507001613 | 60 | 89 | 0.0 | 1.0 | 0.00 | 0.15 | 0.15 | 98 | 1007.8 |
| 20260507001557 | 60 | 0 | 0.0 | 2.0 | 0.00 | 0.15 | 0.15 | 98 | 1007.5 |
| 20260507001348 | 61 | 89 | 0.0 | 2.0 | 0.00 | 0.15 | 0.15 | 98 | 1008.0 |
| 20260507000838 | 61 | 89 | 0.0 | 2.0 | 0.00 | 0.15 | 0.15 | 98 | 1007.9 |
| 20260507000350 | 61 | 121 | 0.0 | 1.0 | 0.00 | 0.15 | 0.15 | 98 | 1007.8 |
| 20260507000112 | 61 | 121 | 0.0 | 1.0 | 0.00 | 0.15 | 0.15 | 98 | 1007.5 |
| 20260507000054 | 61 | 0 | 0.0 | 1.0 | 0.00 | 0.15 | 0.15 | 98 | 1007.2 |
| 20260506235854 | 61 | 123 | 0.0 | 1.0 | 0.00 | 0.15 | 0.15 | 98 | 1007.7 |
| 20260506235344 | 61 | 123 | 0.0 | 1.0 | 0.00 | 0.15 | 0.15 | 98 | 1007.7 |
| 20260506234837 | 61 | 123 | 0.0 | 2.0 | 0.00 | 0.15 | 0.15 | 98 | 1007.6 |
| 20260506234609 | 61 | 123 | 0.0 | 2.0 | 0.00 | 0.15 | 0.15 | 98 | 1007.2 |
| 20260506234600 | 61 | 0 | 0.0 | 2.0 | 0.00 | 0.15 | 0.15 | 98 | 1007.0 |
| 20260506234349 | 61 | 123 | 1.0 | 2.0 | 0.00 | 0.15 | 0.15 | 98 | 1007.6 |
| 20260506233841 | 61 | 123 | 0.0 | 2.0 | 0.00 | 0.15 | 0.15 | 98 | 1007.6 |
| 20260506233412 | 61 | 123 | 0.0 | 1.0 | 0.00 | 0.15 | 0.15 | 98 | 1007.7 |
| 20260506233112 | 61 | 123 | 0.0 | 1.0 | 0.00 | 0.15 | 0.15 | 98 | 1007.4 |
| 20260506233044 | 61 | 0 | 0.0 | 1.0 | 0.00 | 0.15 | 0.15 | 98 | 1007.1 |
| 20260506232839 | 61 | 123 | 0.0 | 1.0 | 0.00 | 0.15 | 0.15 | 98 | 1007.6 |
| 20260506232348 | 61 | 123 | 0.0 | 1.0 | 0.00 | 0.15 | 0.15 | 98 | 1007.8 |
| 20260506231837 | 61 | 123 | 0.0 | 1.0 | 0.00 | 0.15 | 0.15 | 98 | 1007.8 |
| 20260506231621 | 61 | 123 | 0.0 | 1.0 | 0.00 | 0.15 | 0.15 | 98 | 1007.6 |
| 20260506231540 | 61 | 0 | 0.0 | 1.0 | 0.00 | 0.15 | 0.15 | 98 | 1007.3 |
| 20260506231348 | 61 | 123 | 0.0 | 1.0 | 0.00 | 0.15 | 0.15 | 98 | 1007.9 |
| 20260506230919 | 61 | 123 | 0.0 | 1.0 | 0.00 | 0.15 | 0.15 | 98 | 1007.9 |
| 20260506230345 | 61 | 123 | 0.0 | 1.0 | 0.00 | 0.15 | 0.15 | 98 | 1007.8 |
| 20260506230105 | 61 | 123 | 0.0 | 1.0 | 0.00 | 0.15 | 0.15 | 98 | 1007.5 |
| 20260506230037 | 61 | 0 | 0.0 | 1.0 | 0.00 | 0.15 | 0.15 | 98 | 1007.1 |
| 20260506225852 | 61 | 123 | 0.0 | 1.0 | 0.00 | 0.15 | 0.15 | 98 | 1007.7 |
| 20260506225403 | 61 | 123 | 0.0 | 0.0 | 0.00 | 0.15 | 0.15 | 98 | 1007.7 |
| 20260506224853 | 61 | 123 | 0.0 | 1.0 | 0.00 | 0.15 | 0.15 | 98 | 1007.7 |
| 20260506224623 | 61 | 123 | 0.0 | 1.0 | 0.00 | 0.15 | 0.15 | 98 | 1007.3 |
| 20260506224547 | 61 | 0 | 0.0 | 1.0 | 0.00 | 0.15 | 0.15 | 98 | 1007.1 |
| 20260506224342 | 61 | 123 | 0.0 | 1.0 | 0.00 | 0.15 | 0.15 | 98 | 1007.6 |
| 20260506223851 | 61 | 123 | 0.0 | 1.0 | 0.00 | 0.15 | 0.15 | 98 | 1007.5 |
| 20260506223342 | 61 | 123 | 0.0 | 1.0 | 0.00 | 0.15 | 0.15 | 98 | 1007.4 |
| 20260506223117 | 61 | 123 | 0.0 | 1.0 | 0.00 | 0.15 | 0.15 | 98 | 1007.1 |
| 20260506223040 | 61 | 0 | 0.0 | 1.0 | 0.00 | 0.15 | 0.15 | 98 | 1006.8 |
| 20260506222849 | 61 | 123 | 0.0 | 1.0 | 0.00 | 0.15 | 0.15 | 98 | 1007.4 |
| 20260506222338 | 61 | 123 | 0.0 | 1.0 | 0.00 | 0.15 | 0.15 | 98 | 1007.4 |
| 20260506221910 | 61 | 123 | 0.0 | 1.0 | 0.00 | 0.15 | 0.15 | 98 | 1007.4 |
| 20260506221618 | 61 | 123 | 0.0 | 1.0 | 0.00 | 0.15 | 0.15 | 98 | 1007.1 |
| 20260506221551 | 61 | 123 | 0.0 | 1.0 | 0.00 | 0.15 | 0.15 | 97 | 1006.8 |
| 20260506221340 | 61 | 123 | 0.0 | 1.0 | 0.00 | 0.15 | 0.15 | 98 | 1007.4 |
| 20260506220850 | 61 | 123 | 0.0 | 1.0 | 0.00 | 0.15 | 0.15 | 98 | 1007.4 |
| 20260506220340 | 62 | 123 | 0.0 | 2.0 | 0.00 | 0.15 | 0.15 | 98 | 1007.4 |
| 20260506220110 | 61 | 163 | 0.0 | 2.0 | 0.00 | 0.15 | 0.15 | 98 | 1007.1 |
| 20260506220044 | 61 | 0 | 0.0 | 2.0 | 0.00 | 0.15 | 0.15 | 98 | 1006.7 |
| 20260506215848 | 62 | 163 | 1.0 | 2.0 | 0.00 | 0.15 | 0.15 | 98 | 1007.3 |
| 20260506215337 | 62 | 210 | 1.0 | 2.0 | 0.00 | 0.15 | 0.15 | 98 | 1007.3 |
| 20260506214847 | 62 | 222 | 0.0 | 2.0 | 0.00 | 0.15 | 0.15 | 98 | 1007.2 |
| 20260506214615 | 61 | 235 | 0.0 | 2.0 | 0.00 | 0.15 | 0.15 | 98 | 1006.9 |
| 20260506214538 | 61 | 235 | 0.0 | 2.0 | 0.00 | 0.15 | 0.15 | 97 | 1006.5 |
| 20260506214337 | 62 | 197 | 0.0 | 2.0 | 0.00 | 0.15 | 0.15 | 98 | 1007.1 |
| 20260506213847 | 62 | 197 | 0.0 | 3.0 | 0.00 | 0.15 | 0.15 | 98 | 1007.1 |
| 20260506213358 | 61 | 202 | 1.0 | 3.0 | 0.00 | 0.15 | 0.15 | 98 | 1007.0 |
| 20260506213043 | 61 | 0 | 0.0 | 2.0 | 0.00 | 0.15 | 0.15 | 97 | 1006.4 |
| 20260506213005 | 61 | 225 | 0.0 | 2.0 | 0.00 | 0.15 | 0.15 | 98 | 1006.7 |
| 20260506212904 | 61 | 225 | 0.0 | 2.0 | 0.01 | 0.15 | 0.15 | 98 | 1007.0 |
| 20260506212413 | 61 | 175 | 1.0 | 2.0 | 0.01 | 0.15 | 0.15 | 98 | 1007.0 |
| 20260506211842 | 61 | 190 | 1.0 | 1.0 | 0.01 | 0.15 | 0.15 | 98 | 1007.0 |
| 20260506211610 | 61 | 190 | 0.0 | 1.0 | 0.01 | 0.15 | 0.15 | 97 | 1006.7 |
| 20260506211549 | 61 | 190 | 0.0 | 1.0 | 0.01 | 0.15 | 0.15 | 97 | 1006.4 |
| 20260506211353 | 61 | 190 | 0.0 | 1.0 | 0.02 | 0.15 | 0.15 | 97 | 1007.1 |
| 20260506210842 | 61 | 190 | 0.0 | 1.0 | 0.03 | 0.15 | 0.15 | 97 | 1007.0 |
| 20260506210354 | 61 | 190 | 0.0 | 1.0 | 0.04 | 0.15 | 0.15 | 97 | 1006.9 |
| 20260506210046 | 61 | 0 | 0.0 | 1.0 | 0.04 | 0.15 | 0.15 | 97 | 1006.3 |
| 20260506210004 | 61 | 190 | 0.0 | 1.0 | 0.04 | 0.15 | 0.15 | 97 | 1006.5 |
| 20260506205901 | 61 | 190 | 0.0 | 1.0 | 0.04 | 0.15 | 0.15 | 97 | 1006.9 |
| 20260506205349 | 61 | 193 | 0.0 | 1.0 | 0.04 | 0.15 | 0.15 | 97 | 1006.8 |
| 20260506204839 | 61 | 198 | 0.0 | 1.0 | 0.05 | 0.15 | 0.15 | 97 | 1006.8 |
| 20260506204607 | 60 | 198 | 0.0 | 1.0 | 0.05 | 0.15 | 0.15 | 97 | 1006.5 |
| 20260506204538 | 60 | 0 | 0.0 | 3.0 | 0.05 | 0.15 | 0.15 | 97 | 1006.2 |
| 20260506204349 | 61 | 210 | 0.0 | 2.0 | 0.05 | 0.15 | 0.15 | 97 | 1006.8 |
| 20260506203839 | 61 | 196 | 0.0 | 2.0 | 0.06 | 0.15 | 0.15 | 97 | 1006.9 |
| 20260506203351 | 61 | 77 | 1.0 | 3.0 | 0.06 | 0.15 | 0.15 | 97 | 1007.0 |
| 20260506203115 | 60 | 109 | 0.0 | 3.0 | 0.07 | 0.15 | 0.15 | 97 | 1006.8 |
| 20260506203038 | 60 | 0 | 0.0 | 3.0 | 0.07 | 0.15 | 0.15 | 96 | 1006.4 |
| 20260506202837 | 61 | 109 | 0.0 | 3.0 | 0.06 | 0.14 | 0.14 | 97 | 1007.1 |
| 20260506202407 | 61 | 173 | 0.0 | 2.0 | 0.07 | 0.14 | 0.14 | 97 | 1007.1 |
| 20260506201857 | 60 | 215 | 0.0 | 2.0 | 0.08 | 0.14 | 0.14 | 96 | 1007.2 |
| 20260506201623 | 60 | 216 | 0.0 | 3.0 | 0.09 | 0.14 | 0.14 | 96 | 1006.9 |
| 20260506201540 | 60 | 0 | 0.0 | 3.0 | 0.09 | 0.14 | 0.14 | 96 | 1006.6 |
| 20260506201343 | 60 | 215 | 1.0 | 3.0 | 0.08 | 0.13 | 0.13 | 96 | 1007.3 |
| 20260506200838 | 60 | 229 | 1.0 | 3.0 | 0.08 | 0.12 | 0.12 | 96 | 1007.3 |
| 20260506200349 | 60 | 207 | 0.0 | 2.0 | 0.07 | 0.11 | 0.11 | 96 | 1007.3 |
| 20260506200116 | 60 | 207 | 0.0 | 3.0 | 0.07 | 0.11 | 0.11 | 96 | 1007.0 |
| 20260506200045 | 60 | 207 | 0.0 | 4.0 | 0.07 | 0.11 | 0.11 | 95 | 1006.7 |
| 20260506195856 | 60 | 207 | 0.0 | 3.0 | 0.07 | 0.11 | 0.11 | 96 | 1007.4 |
| 20260506195345 | 61 | 207 | 1.0 | 3.0 | 0.07 | 0.11 | 0.11 | 96 | 1007.5 |
| 20260506194856 | 61 | 189 | 1.0 | 2.0 | 0.06 | 0.10 | 0.10 | 96 | 1007.5 |
| 20260506194618 | 60 | 215 | 0.0 | 2.0 | 0.06 | 0.10 | 0.10 | 96 | 1007.2 |
| 20260506194543 | 60 | 0 | 0.0 | 3.0 | 0.06 | 0.10 | 0.10 | 95 | 1007.0 |
| 20260506194344 | 61 | 215 | 0.0 | 2.0 | 0.06 | 0.10 | 0.10 | 96 | 1007.6 |
| 20260506193855 | 61 | 189 | 1.0 | 3.0 | 0.05 | 0.09 | 0.09 | 96 | 1007.6 |
| 20260506193345 | 61 | 167 | 0.0 | 2.0 | 0.04 | 0.08 | 0.08 | 95 | 1007.7 |
| 20260506193112 | 60 | 189 | 0.0 | 2.0 | 0.04 | 0.08 | 0.08 | 95 | 1007.5 |
| 20260506193047 | 60 | 0 | 0.0 | 2.0 | 0.04 | 0.08 | 0.08 | 95 | 1007.2 |
| 20260506192849 | 61 | 189 | 0.0 | 2.0 | 0.04 | 0.08 | 0.08 | 95 | 1007.9 |
| 20260506192338 | 61 | 192 | 0.0 | 3.0 | 0.02 | 0.06 | 0.06 | 95 | 1007.9 |
| 20260506191849 | 61 | 199 | 1.0 | 3.0 | 0.02 | 0.06 | 0.06 | 95 | 1007.9 |